contact:dominique.lefevre@mio.osupytheas.fr, maurice.libes@osupytheas.fr, didier.mallarino@osupytheas.fr
Project:EMSO http://www.emso-fr.org/EMSO-France
Depth: 2436.0 m
Title:EMSO Ligure Ouest : Data MII capteur MICROCAT
DateTime_Computer,Latitude,Longitude,Temperature,Conductivity,Pressure,DateTime_Instrument
DateTime_Computer,Latitude,Longitude,degC,S m-1,dbar,DateTime_Instrument
2019-07-30T00:01:34Z,42.805,6.029,13.2961,4.59958,2469.834,2019-7-30T02:01:54Z
2019-07-30T00:04:37Z,42.805,6.029,13.2958,4.59957,2469.83,2019-7-30T02:04:57Z
2019-07-30T00:07:41Z,42.805,6.029,13.2961,4.59956,2469.83,2019-7-30T02:08:00Z
2019-07-30T00:10:44Z,42.805,6.029,13.2957,4.59956,2469.806,2019-7-30T02:11:03Z
2019-07-30T00:13:47Z,42.805,6.029,13.2958,4.59956,2469.821,2019-7-30T02:14:06Z
2019-07-30T00:16:50Z,42.805,6.029,13.2960,4.59956,2469.83,2019-7-30T02:17:10Z
2019-07-30T00:19:53Z,42.805,6.029,13.2957,4.59956,2469.821,2019-7-30T02:20:13Z
2019-07-30T00:22:56Z,42.805,6.029,13.2958,4.59955,2469.821,2019-7-30T02:23:16Z
2019-07-30T00:26:00Z,42.805,6.029,13.2957,4.59956,2469.844,2019-7-30T02:26:20Z
2019-07-30T00:29:03Z,42.805,6.029,13.2957,4.59958,2469.83,2019-7-30T02:29:23Z
2019-07-30T00:32:07Z,42.805,6.029,13.2961,4.59958,2469.83,2019-7-30T02:32:26Z
2019-07-30T00:35:10Z,42.805,6.029,13.2961,4.59957,2469.83,2019-7-30T02:35:29Z
2019-07-30T00:38:13Z,42.805,6.029,13.2956,4.59958,2469.83,2019-7-30T02:38:32Z
2019-07-30T00:41:16Z,42.805,6.029,13.2957,4.59956,2469.844,2019-7-30T02:41:36Z
2019-07-30T00:44:19Z,42.805,6.029,13.2961,4.59956,2469.844,2019-7-30T02:44:39Z
2019-07-30T00:47:23Z,42.805,6.029,13.2959,4.59957,2469.806,2019-7-30T02:47:42Z
2019-07-30T00:50:26Z,42.805,6.029,13.2958,4.59956,2469.821,2019-7-30T02:50:45Z
2019-07-30T00:53:29Z,42.805,6.029,13.2958,4.59956,2469.83,2019-7-30T02:53:48Z
2019-07-30T00:56:32Z,42.805,6.029,13.2957,4.59956,2469.793,2019-7-30T02:56:52Z
2019-07-30T00:59:35Z,42.805,6.029,13.2959,4.59957,2469.821,2019-7-30T02:59:55Z
2019-07-30T01:02:39Z,42.805,6.029,13.2958,4.59956,2469.844,2019-7-30T03:02:58Z
2019-07-30T01:05:42Z,42.805,6.029,13.2958,4.59958,2469.853,2019-7-30T03:06:01Z
2019-07-30T01:08:45Z,42.805,6.029,13.2962,4.59956,2469.853,2019-7-30T03:09:04Z
2019-07-30T01:11:48Z,42.805,6.029,13.2958,4.59956,2469.83,2019-7-30T03:12:08Z
2019-07-30T01:14:51Z,42.805,6.029,13.2958,4.59958,2469.853,2019-7-30T03:15:11Z
2019-07-30T01:17:55Z,42.805,6.029,13.2957,4.59956,2469.806,2019-7-30T03:18:14Z
2019-07-30T01:20:58Z,42.805,6.029,13.2956,4.59956,2469.806,2019-7-30T03:21:17Z
2019-07-30T01:24:01Z,42.805,6.029,13.2958,4.59957,2469.844,2019-7-30T03:24:20Z
2019-07-30T01:27:04Z,42.805,6.029,13.2959,4.59956,2469.83,2019-7-30T03:27:24Z
2019-07-30T01:30:07Z,42.805,6.029,13.2959,4.59957,2469.853,2019-7-30T03:30:27Z
2019-07-30T01:33:10Z,42.805,6.029,13.2959,4.59958,2469.844,2019-7-30T03:33:30Z
2019-07-30T01:36:14Z,42.805,6.029,13.2964,4.59957,2469.83,2019-7-30T03:36:33Z
2019-07-30T01:39:17Z,42.805,6.029,13.2964,4.59956,2469.844,2019-7-30T03:39:36Z
2019-07-30T01:42:20Z,42.805,6.029,13.2959,4.59957,2469.83,2019-7-30T03:42:39Z
2019-07-30T01:45:23Z,42.805,6.029,13.2958,4.59958,2469.806,2019-7-30T03:45:43Z
2019-07-30T01:48:26Z,42.805,6.029,13.2958,4.59957,2469.853,2019-7-30T03:48:46Z
2019-07-30T01:51:30Z,42.805,6.029,13.2958,4.59957,2469.876,2019-7-30T03:51:49Z
2019-07-30T01:54:33Z,42.805,6.029,13.2958,4.59956,2469.89,2019-7-30T03:54:52Z
2019-07-30T01:57:36Z,42.805,6.029,13.2962,4.59958,2469.853,2019-7-30T03:57:56Z
2019-07-30T02:00:39Z,42.805,6.029,13.2960,4.59956,2469.89,2019-7-30T04:00:59Z
2019-07-30T02:03:43Z,42.805,6.029,13.2961,4.59956,2469.89,2019-7-30T04:04:02Z
2019-07-30T02:06:46Z,42.805,6.029,13.2958,4.59956,2469.867,2019-7-30T04:07:05Z
2019-07-30T02:09:49Z,42.805,6.029,13.2958,4.59956,2469.853,2019-7-30T04:10:08Z
2019-07-30T02:12:52Z,42.805,6.029,13.2958,4.59957,2469.867,2019-7-30T04:13:12Z
2019-07-30T02:15:55Z,42.805,6.029,13.2960,4.59956,2469.83,2019-7-30T04:16:15Z
2019-07-30T02:18:58Z,42.805,6.029,13.2957,4.59957,2469.867,2019-7-30T04:19:18Z
2019-07-30T02:22:02Z,42.805,6.029,13.2959,4.59957,2469.867,2019-7-30T04:22:21Z
2019-07-30T02:25:05Z,42.805,6.029,13.2958,4.59958,2469.89,2019-7-30T04:25:24Z
2019-07-30T02:28:08Z,42.805,6.029,13.2958,4.59958,2469.867,2019-7-30T04:28:27Z
2019-07-30T02:31:11Z,42.805,6.029,13.2964,4.59958,2469.876,2019-7-30T04:31:31Z
2019-07-30T02:34:14Z,42.805,6.029,13.2957,4.59958,2469.867,2019-7-30T04:34:34Z
2019-07-30T02:37:18Z,42.805,6.029,13.2957,4.59956,2469.9,2019-7-30T04:37:37Z
2019-07-30T02:40:21Z,42.805,6.029,13.2961,4.59957,2469.89,2019-7-30T04:40:40Z
2019-07-30T02:43:24Z,42.805,6.029,13.2959,4.59956,2469.914,2019-7-30T04:43:43Z
2019-07-30T02:46:27Z,42.805,6.029,13.2957,4.59957,2469.914,2019-7-30T04:46:47Z
2019-07-30T02:49:30Z,42.805,6.029,13.2961,4.59958,2469.853,2019-7-30T04:49:50Z
2019-07-30T02:52:34Z,42.805,6.029,13.2959,4.59958,2469.9,2019-7-30T04:52:53Z
2019-07-30T02:55:37Z,42.805,6.029,13.2959,4.59956,2469.914,2019-7-30T04:55:56Z
2019-07-30T02:58:40Z,42.805,6.029,13.2958,4.59958,2469.914,2019-7-30T04:58:59Z
2019-07-30T03:01:43Z,42.805,6.029,13.2959,4.59957,2469.89,2019-7-30T05:02:03Z
2019-07-30T03:04:46Z,42.805,6.029,13.2961,4.59957,2469.914,2019-7-30T05:05:06Z
2019-07-30T03:07:50Z,42.805,6.029,13.2957,4.59957,2469.914,2019-7-30T05:08:09Z
2019-07-30T03:10:53Z,42.805,6.029,13.2960,4.59958,2469.9,2019-7-30T05:11:12Z
2019-07-30T03:13:56Z,42.805,6.029,13.2961,4.59958,2469.914,2019-7-30T05:14:15Z
2019-07-30T03:16:59Z,42.805,6.029,13.2957,4.59958,2469.923,2019-7-30T05:17:19Z
2019-07-30T03:20:02Z,42.805,6.029,13.2958,4.59958,2469.923,2019-7-30T05:20:22Z
2019-07-30T03:23:05Z,42.805,6.029,13.2958,4.59960,2469.914,2019-7-30T05:23:25Z
2019-07-30T03:26:09Z,42.805,6.029,13.2961,4.59957,2469.9,2019-7-30T05:26:28Z
2019-07-30T03:29:12Z,42.805,6.029,13.2962,4.59957,2469.923,2019-7-30T05:29:31Z
2019-07-30T03:32:15Z,42.805,6.029,13.2959,4.59958,2469.9,2019-7-30T05:32:35Z
2019-07-30T03:35:18Z,42.805,6.029,13.2962,4.59958,2469.914,2019-7-30T05:35:38Z
2019-07-30T03:38:21Z,42.805,6.029,13.2962,4.59958,2469.947,2019-7-30T05:38:41Z
2019-07-30T03:41:25Z,42.805,6.029,13.2961,4.59957,2469.937,2019-7-30T05:41:44Z
2019-07-30T03:44:28Z,42.805,6.029,13.2958,4.59958,2469.937,2019-7-30T05:44:47Z
2019-07-30T03:47:31Z,42.805,6.029,13.2959,4.59958,2469.923,2019-7-30T05:47:51Z
2019-07-30T03:50:34Z,42.805,6.029,13.2960,4.59964,2469.923,2019-7-30T05:50:54Z
2019-07-30T03:53:37Z,42.805,6.029,13.2959,4.59958,2469.96,2019-7-30T05:53:57Z
2019-07-30T03:56:41Z,42.805,6.029,13.2961,4.59961,2469.923,2019-7-30T05:57:00Z
2019-07-30T03:59:44Z,42.805,6.029,13.2958,4.59958,2469.947,2019-7-30T06:00:03Z
2019-07-30T04:02:47Z,42.805,6.029,13.2955,4.59961,2469.923,2019-7-30T06:03:07Z
2019-07-30T04:05:50Z,42.805,6.029,13.2957,4.59960,2469.96,2019-7-30T06:06:10Z
2019-07-30T04:08:53Z,42.805,6.029,13.2957,4.59957,2469.97,2019-7-30T06:09:13Z
2019-07-30T04:11:57Z,42.805,6.029,13.2958,4.59961,2469.937,2019-7-30T06:12:16Z
2019-07-30T04:15:00Z,42.805,6.029,13.2958,4.59958,2469.947,2019-7-30T06:15:19Z
2019-07-30T04:18:03Z,42.805,6.029,13.2961,4.59958,2469.96,2019-7-30T06:18:23Z
2019-07-30T04:21:06Z,42.805,6.029,13.2958,4.59958,2469.96,2019-7-30T06:21:26Z
2019-07-30T04:24:09Z,42.805,6.029,13.2958,4.59958,2469.96,2019-7-30T06:24:29Z
2019-07-30T04:27:13Z,42.805,6.029,13.2958,4.59960,2469.937,2019-7-30T06:27:32Z
2019-07-30T04:30:16Z,42.805,6.029,13.2958,4.59961,2469.937,2019-7-30T06:30:35Z
2019-07-30T04:33:19Z,42.805,6.029,13.2958,4.59958,2469.947,2019-7-30T06:33:38Z
2019-07-30T04:36:22Z,42.805,6.029,13.2959,4.59959,2469.9,2019-7-30T06:36:42Z
2019-07-30T04:39:25Z,42.805,6.029,13.2961,4.59959,2469.937,2019-7-30T06:39:45Z
2019-07-30T04:42:29Z,42.805,6.029,13.2958,4.59961,2469.937,2019-7-30T06:42:48Z
2019-07-30T04:45:32Z,42.805,6.029,13.2955,4.59958,2469.923,2019-7-30T06:45:51Z
2019-07-30T04:48:35Z,42.805,6.029,13.2963,4.59958,2469.937,2019-7-30T06:48:54Z
2019-07-30T04:51:38Z,42.805,6.029,13.2963,4.59959,2469.937,2019-7-30T06:51:58Z
2019-07-30T04:54:41Z,42.805,6.029,13.2961,4.59961,2469.96,2019-7-30T06:55:01Z
2019-07-30T04:57:45Z,42.805,6.029,13.2960,4.59963,2469.96,2019-7-30T06:58:04Z
2019-07-30T05:00:48Z,42.805,6.029,13.2960,4.59960,2469.97,2019-7-30T07:01:07Z
2019-07-30T05:03:51Z,42.805,6.029,13.2959,4.59961,2469.96,2019-7-30T07:04:10Z
2019-07-30T05:06:54Z,42.805,6.029,13.2957,4.59961,2469.97,2019-7-30T07:07:14Z
2019-07-30T05:09:57Z,42.805,6.029,13.2961,4.59958,2469.984,2019-7-30T07:10:17Z
2019-07-30T05:13:01Z,42.805,6.029,13.2958,4.59960,2469.947,2019-7-30T07:13:20Z
2019-07-30T05:16:04Z,42.805,6.029,13.2960,4.59963,2469.984,2019-7-30T07:16:23Z
2019-07-30T05:19:07Z,42.805,6.029,13.2960,4.59958,2469.947,2019-7-30T07:19:26Z
2019-07-30T05:22:10Z,42.805,6.029,13.2960,4.59959,2469.97,2019-7-30T07:22:30Z
2019-07-30T05:25:13Z,42.805,6.029,13.2964,4.59960,2469.96,2019-7-30T07:25:33Z
2019-07-30T05:28:16Z,42.805,6.029,13.2963,4.59960,2469.984,2019-7-30T07:28:36Z
2019-07-30T05:31:20Z,42.805,6.029,13.2959,4.59964,2469.947,2019-7-30T07:31:39Z
2019-07-30T05:34:23Z,42.805,6.029,13.2963,4.59960,2469.984,2019-7-30T07:34:42Z
2019-07-30T05:37:26Z,42.805,6.029,13.2964,4.59961,2469.923,2019-7-30T07:37:46Z
2019-07-30T05:40:29Z,42.805,6.029,13.2959,4.59961,2469.923,2019-7-30T07:40:49Z
2019-07-30T05:43:32Z,42.805,6.029,13.2964,4.59960,2469.993,2019-7-30T07:43:52Z
2019-07-30T05:46:36Z,42.805,6.029,13.2958,4.59960,2469.914,2019-7-30T07:46:55Z
2019-07-30T05:49:39Z,42.805,6.029,13.2963,4.59960,2469.984,2019-7-30T07:49:58Z
2019-07-30T05:52:42Z,42.805,6.029,13.2961,4.59961,2469.97,2019-7-30T07:53:02Z
2019-07-30T05:55:46Z,42.805,6.029,13.2959,4.59960,2469.923,2019-7-30T07:56:05Z
2019-07-30T05:58:49Z,42.805,6.029,13.2959,4.59960,2469.937,2019-7-30T07:59:08Z
2019-07-30T06:01:52Z,42.805,6.029,13.2962,4.59961,2470.007,2019-7-30T08:02:12Z
2019-07-30T06:04:56Z,42.805,6.029,13.2963,4.59960,2469.97,2019-7-30T08:05:15Z
2019-07-30T06:07:59Z,42.805,6.029,13.2962,4.59958,2469.984,2019-7-30T08:08:18Z
2019-07-30T06:11:02Z,42.805,6.029,13.2960,4.59961,2469.96,2019-7-30T08:11:21Z
2019-07-30T06:14:05Z,42.805,6.029,13.2964,4.59962,2469.96,2019-7-30T08:14:25Z
2019-07-30T06:17:08Z,42.805,6.029,13.2964,4.59959,2469.984,2019-7-30T08:17:28Z
2019-07-30T06:20:12Z,42.805,6.029,13.2959,4.59962,2469.947,2019-7-30T08:20:31Z
2019-07-30T06:23:15Z,42.805,6.029,13.2960,4.59961,2469.97,2019-7-30T08:23:34Z
2019-07-30T06:26:18Z,42.805,6.029,13.2962,4.59959,2469.947,2019-7-30T08:26:37Z
2019-07-30T06:29:21Z,42.805,6.029,13.2960,4.59961,2469.96,2019-7-30T08:29:41Z
2019-07-30T06:32:24Z,42.805,6.029,13.2965,4.59958,2469.96,2019-7-30T08:32:44Z
2019-07-30T06:35:27Z,42.805,6.029,13.2960,4.59960,2469.947,2019-7-30T08:35:47Z
2019-07-30T06:38:31Z,42.805,6.029,13.2960,4.59960,2469.947,2019-7-30T08:38:50Z
2019-07-30T06:41:34Z,42.805,6.029,13.2964,4.59961,2469.984,2019-7-30T08:41:53Z
2019-07-30T06:44:37Z,42.805,6.029,13.2961,4.59962,2469.923,2019-7-30T08:44:57Z
2019-07-30T06:47:40Z,42.805,6.029,13.2963,4.59958,2469.937,2019-7-30T08:48:00Z
2019-07-30T06:50:44Z,42.805,6.029,13.2962,4.59961,2469.914,2019-7-30T08:51:03Z
2019-07-30T06:53:47Z,42.805,6.029,13.2962,4.59960,2469.947,2019-7-30T08:54:06Z
2019-07-30T06:56:50Z,42.805,6.029,13.2961,4.59960,2469.947,2019-7-30T08:57:09Z
2019-07-30T06:59:53Z,42.805,6.029,13.2962,4.59961,2469.96,2019-7-30T09:00:13Z
2019-07-30T07:02:56Z,42.805,6.029,13.2962,4.59959,2469.96,2019-7-30T09:03:16Z
2019-07-30T07:06:00Z,42.805,6.029,13.2960,4.59960,2469.923,2019-7-30T09:06:19Z
2019-07-30T07:09:03Z,42.805,6.029,13.2963,4.59960,2469.9,2019-7-30T09:09:22Z
2019-07-30T07:12:06Z,42.805,6.029,13.2961,4.59961,2469.947,2019-7-30T09:12:25Z
2019-07-30T07:15:09Z,42.805,6.029,13.2961,4.59961,2469.923,2019-7-30T09:15:29Z
2019-07-30T07:18:12Z,42.805,6.029,13.2958,4.59961,2469.914,2019-7-30T09:18:32Z
2019-07-30T07:21:16Z,42.805,6.029,13.2961,4.59959,2469.923,2019-7-30T09:21:35Z
2019-07-30T07:24:19Z,42.805,6.029,13.2961,4.59960,2469.876,2019-7-30T09:24:38Z
2019-07-30T07:27:22Z,42.805,6.029,13.2960,4.59960,2469.923,2019-7-30T09:27:42Z
2019-07-30T07:30:25Z,42.805,6.029,13.2961,4.59960,2469.9,2019-7-30T09:30:45Z
2019-07-30T07:33:29Z,42.805,6.029,13.2963,4.59958,2469.914,2019-7-30T09:33:48Z
2019-07-30T07:36:32Z,42.805,6.029,13.2960,4.59961,2469.923,2019-7-30T09:36:52Z
2019-07-30T07:39:35Z,42.805,6.029,13.2961,4.59961,2469.89,2019-7-30T09:39:55Z
2019-07-30T07:42:39Z,42.805,6.029,13.2962,4.59962,2469.914,2019-7-30T09:42:58Z
2019-07-30T07:45:42Z,42.805,6.029,13.2961,4.59961,2469.914,2019-7-30T09:46:01Z
2019-07-30T07:48:45Z,42.805,6.029,13.2960,4.59961,2469.937,2019-7-30T09:49:05Z
2019-07-30T07:51:48Z,42.805,6.029,13.2962,4.59961,2469.914,2019-7-30T09:52:08Z
2019-07-30T07:54:52Z,42.805,6.029,13.2959,4.59961,2469.914,2019-7-30T09:55:11Z
2019-07-30T07:57:55Z,42.805,6.029,13.2961,4.59959,2469.9,2019-7-30T09:58:15Z
2019-07-30T08:00:58Z,42.805,6.029,13.2961,4.59962,2469.876,2019-7-30T10:01:18Z
2019-07-30T08:04:02Z,42.805,6.029,13.2964,4.59960,2469.9,2019-7-30T10:04:21Z
2019-07-30T08:07:05Z,42.805,6.029,13.2964,4.59961,2469.923,2019-7-30T10:07:24Z
2019-07-30T08:10:08Z,42.805,6.029,13.2959,4.59960,2469.9,2019-7-30T10:10:28Z
2019-07-30T08:13:11Z,42.805,6.029,13.2964,4.59961,2469.876,2019-7-30T10:13:31Z
2019-07-30T08:16:15Z,42.805,6.029,13.2961,4.59961,2469.853,2019-7-30T10:16:34Z
2019-07-30T08:19:18Z,42.805,6.029,13.2960,4.59960,2469.9,2019-7-30T10:19:38Z
2019-07-30T08:22:21Z,42.805,6.029,13.2961,4.59961,2469.876,2019-7-30T10:22:41Z
2019-07-30T08:25:25Z,42.805,6.029,13.2959,4.59961,2469.867,2019-7-30T10:25:44Z
2019-07-30T08:28:28Z,42.805,6.029,13.2957,4.59960,2469.89,2019-7-30T10:28:47Z
2019-07-30T08:31:31Z,42.805,6.029,13.2958,4.59962,2469.89,2019-7-30T10:31:51Z
2019-07-30T08:34:34Z,42.805,6.029,13.2959,4.59961,2469.853,2019-7-30T10:34:54Z
2019-07-30T08:37:38Z,42.805,6.029,13.2959,4.59960,2469.876,2019-7-30T10:37:57Z
2019-07-30T08:40:41Z,42.805,6.029,13.2964,4.59961,2469.876,2019-7-30T10:41:01Z
2019-07-30T08:43:44Z,42.805,6.029,13.2959,4.59960,2469.876,2019-7-30T10:44:04Z
2019-07-30T08:46:48Z,42.805,6.029,13.2961,4.59958,2469.853,2019-7-30T10:47:07Z
2019-07-30T08:49:51Z,42.805,6.029,13.2961,4.59961,2469.83,2019-7-30T10:50:11Z
2019-07-30T08:52:54Z,42.805,6.029,13.2961,4.59963,2469.867,2019-7-30T10:53:14Z
2019-07-30T08:55:58Z,42.805,6.029,13.2964,4.59960,2469.914,2019-7-30T10:56:17Z
2019-07-30T08:59:01Z,42.805,6.029,13.2958,4.59960,2469.89,2019-7-30T10:59:20Z
2019-07-30T09:02:04Z,42.805,6.029,13.2959,4.59961,2469.853,2019-7-30T11:02:24Z
2019-07-30T09:05:08Z,42.805,6.029,13.2958,4.59958,2469.867,2019-7-30T11:05:27Z
2019-07-30T09:08:11Z,42.805,6.029,13.2958,4.59958,2469.89,2019-7-30T11:08:30Z
2019-07-30T09:11:14Z,42.805,6.029,13.2961,4.59960,2469.876,2019-7-30T11:11:34Z
2019-07-30T09:14:18Z,42.805,6.029,13.2964,4.59959,2469.853,2019-7-30T11:14:37Z
2019-07-30T09:17:21Z,42.805,6.029,13.2960,4.59960,2469.876,2019-7-30T11:17:40Z
2019-07-30T09:20:24Z,42.805,6.029,13.2958,4.59958,2469.867,2019-7-30T11:20:43Z
2019-07-30T09:23:27Z,42.805,6.029,13.2958,4.59958,2469.867,2019-7-30T11:23:47Z
2019-07-30T09:26:31Z,42.805,6.029,13.2961,4.59957,2469.853,2019-7-30T11:26:50Z
2019-07-30T09:29:34Z,42.805,6.029,13.2958,4.59957,2469.853,2019-7-30T11:29:53Z
2019-07-30T09:32:37Z,42.805,6.029,13.2960,4.59958,2469.844,2019-7-30T11:32:57Z
2019-07-30T09:35:41Z,42.805,6.029,13.2958,4.59959,2469.853,2019-7-30T11:36:00Z
2019-07-30T09:38:44Z,42.805,6.029,13.2959,4.59959,2469.83,2019-7-30T11:39:03Z
2019-07-30T09:41:47Z,42.805,6.029,13.2957,4.59957,2469.853,2019-7-30T11:42:07Z
2019-07-30T09:44:50Z,42.805,6.029,13.2959,4.59958,2469.853,2019-7-30T11:45:10Z
2019-07-30T09:47:54Z,42.805,6.029,13.2958,4.59957,2469.806,2019-7-30T11:48:13Z
2019-07-30T09:50:57Z,42.805,6.029,13.2958,4.59957,2469.83,2019-7-30T11:51:16Z
2019-07-30T09:54:00Z,42.805,6.029,13.2959,4.59958,2469.83,2019-7-30T11:54:20Z
2019-07-30T09:57:04Z,42.805,6.029,13.2955,4.59956,2469.83,2019-7-30T11:57:23Z
2019-07-30T10:00:07Z,42.805,6.029,13.2957,4.59956,2469.821,2019-7-30T12:00:26Z
2019-07-30T10:03:10Z,42.805,6.029,13.2958,4.59956,2469.806,2019-7-30T12:03:30Z
2019-07-30T10:06:13Z,42.805,6.029,13.2957,4.59956,2469.844,2019-7-30T12:06:33Z
2019-07-30T10:09:17Z,42.805,6.029,13.2957,4.59956,2469.844,2019-7-30T12:09:36Z
2019-07-30T10:12:20Z,42.805,6.029,13.2961,4.59955,2469.806,2019-7-30T12:12:40Z
2019-07-30T10:15:23Z,42.805,6.029,13.2962,4.59955,2469.806,2019-7-30T12:15:43Z
2019-07-30T10:18:27Z,42.805,6.029,13.2961,4.59958,2469.83,2019-7-30T12:18:46Z
2019-07-30T10:21:30Z,42.805,6.029,13.2955,4.59958,2469.83,2019-7-30T12:21:49Z
2019-07-30T10:24:33Z,42.805,6.029,13.2959,4.59957,2469.83,2019-7-30T12:24:53Z
2019-07-30T10:27:36Z,42.805,6.029,13.2958,4.59958,2469.844,2019-7-30T12:27:56Z
2019-07-30T10:30:40Z,42.805,6.029,13.2958,4.59956,2469.806,2019-7-30T12:30:59Z
2019-07-30T10:33:43Z,42.805,6.029,13.2957,4.59955,2469.806,2019-7-30T12:34:02Z
2019-07-30T10:36:46Z,42.805,6.029,13.2958,4.59954,2469.806,2019-7-30T12:37:06Z
2019-07-30T10:39:50Z,42.805,6.029,13.2958,4.59954,2469.844,2019-7-30T12:40:09Z
2019-07-30T10:42:53Z,42.805,6.029,13.2958,4.59955,2469.783,2019-7-30T12:43:12Z
2019-07-30T10:45:56Z,42.805,6.029,13.2960,4.59955,2469.76,2019-7-30T12:46:16Z
2019-07-30T10:49:00Z,42.805,6.029,13.2960,4.59956,2469.783,2019-7-30T12:49:19Z
2019-07-30T10:52:03Z,42.805,6.029,13.2956,4.59956,2469.806,2019-7-30T12:52:22Z
2019-07-30T10:55:06Z,42.805,6.029,13.2958,4.59954,2469.783,2019-7-30T12:55:26Z
2019-07-30T10:58:09Z,42.805,6.029,13.2957,4.59955,2469.783,2019-7-30T12:58:29Z
2019-07-30T11:01:13Z,42.805,6.029,13.2960,4.59956,2469.806,2019-7-30T13:01:32Z
2019-07-30T11:04:16Z,42.805,6.029,13.2958,4.59954,2469.797,2019-7-30T13:04:35Z
2019-07-30T11:07:19Z,42.805,6.029,13.2958,4.59954,2469.797,2019-7-30T13:07:39Z
2019-07-30T11:10:23Z,42.805,6.029,13.2958,4.59954,2469.806,2019-7-30T13:10:42Z
2019-07-30T11:13:26Z,42.805,6.029,13.2957,4.59955,2469.773,2019-7-30T13:13:45Z
2019-07-30T11:16:29Z,42.805,6.029,13.2957,4.59954,2469.76,2019-7-30T13:16:49Z
2019-07-30T11:19:32Z,42.805,6.029,13.2963,4.59956,2469.773,2019-7-30T13:19:52Z
2019-07-30T11:22:36Z,42.805,6.029,13.2962,4.59954,2469.783,2019-7-30T13:22:55Z
2019-07-30T11:25:39Z,42.805,6.029,13.2952,4.59953,2469.783,2019-7-30T13:25:58Z
2019-07-30T11:28:42Z,42.805,6.029,13.2958,4.59954,2469.783,2019-7-30T13:29:02Z
2019-07-30T11:31:46Z,42.805,6.029,13.2960,4.59954,2469.783,2019-7-30T13:32:05Z
2019-07-30T11:34:49Z,42.805,6.029,13.2955,4.59957,2469.783,2019-7-30T13:35:08Z
2019-07-30T11:37:52Z,42.805,6.029,13.2960,4.59956,2469.797,2019-7-30T13:38:12Z
2019-07-30T11:40:55Z,42.805,6.029,13.2956,4.59956,2469.783,2019-7-30T13:41:15Z
2019-07-30T11:43:59Z,42.805,6.029,13.2960,4.59954,2469.76,2019-7-30T13:44:18Z
2019-07-30T11:47:02Z,42.805,6.029,13.2960,4.59954,2469.797,2019-7-30T13:47:21Z
2019-07-30T11:50:05Z,42.805,6.029,13.2959,4.59954,2469.821,2019-7-30T13:50:25Z
2019-07-30T11:53:09Z,42.805,6.029,13.2953,4.59953,2469.76,2019-7-30T13:53:28Z
2019-07-30T11:56:12Z,42.805,6.029,13.2955,4.59954,2469.797,2019-7-30T13:56:31Z
2019-07-30T11:59:15Z,42.805,6.029,13.2961,4.59954,2469.821,2019-7-30T13:59:35Z
2019-07-30T12:02:18Z,42.805,6.029,13.2955,4.59955,2469.797,2019-7-30T14:02:38Z
2019-07-30T12:05:22Z,42.805,6.029,13.2960,4.59954,2469.76,2019-7-30T14:05:41Z
2019-07-30T12:08:25Z,42.805,6.029,13.2957,4.59955,2469.806,2019-7-30T14:08:44Z
2019-07-30T12:11:28Z,42.805,6.029,13.2954,4.59955,2469.773,2019-7-30T14:11:48Z
2019-07-30T12:14:32Z,42.805,6.029,13.2957,4.59954,2469.773,2019-7-30T14:14:51Z
2019-07-30T12:17:35Z,42.805,6.029,13.2960,4.59954,2469.783,2019-7-30T14:17:54Z
2019-07-30T12:20:38Z,42.805,6.029,13.2957,4.59953,2469.76,2019-7-30T14:20:58Z
2019-07-30T12:23:42Z,42.805,6.029,13.2954,4.59955,2469.773,2019-7-30T14:24:01Z
2019-07-30T12:26:45Z,42.805,6.029,13.2957,4.59954,2469.821,2019-7-30T14:27:04Z
2019-07-30T12:29:48Z,42.805,6.029,13.2957,4.59954,2469.773,2019-7-30T14:30:08Z
2019-07-30T12:32:51Z,42.805,6.029,13.2957,4.59955,2469.773,2019-7-30T14:33:11Z
2019-07-30T12:35:55Z,42.805,6.029,13.2957,4.59954,2469.783,2019-7-30T14:36:14Z
2019-07-30T12:38:58Z,42.805,6.029,13.2957,4.59954,2469.783,2019-7-30T14:39:17Z
2019-07-30T12:42:01Z,42.805,6.029,13.2956,4.59954,2469.737,2019-7-30T14:42:21Z
2019-07-30T12:45:04Z,42.805,6.029,13.2957,4.59953,2469.783,2019-7-30T14:45:24Z
2019-07-30T12:48:08Z,42.805,6.029,13.2956,4.59954,2469.797,2019-7-30T14:48:27Z
2019-07-30T12:51:11Z,42.805,6.029,13.2957,4.59954,2469.783,2019-7-30T14:51:31Z
2019-07-30T12:54:15Z,42.805,6.029,13.2957,4.59955,2469.797,2019-7-30T14:54:34Z
2019-07-30T12:57:18Z,42.805,6.029,13.2958,4.59956,2469.76,2019-7-30T14:57:37Z
2019-07-30T13:00:21Z,42.805,6.029,13.2958,4.59953,2469.797,2019-7-30T15:00:40Z
2019-07-30T13:03:24Z,42.805,6.029,13.2957,4.59954,2469.797,2019-7-30T15:03:44Z
2019-07-30T13:06:28Z,42.805,6.029,13.2957,4.59954,2469.797,2019-7-30T15:06:47Z
2019-07-30T13:09:31Z,42.805,6.029,13.2957,4.59954,2469.797,2019-7-30T15:09:50Z
2019-07-30T13:12:34Z,42.805,6.029,13.2953,4.59955,2469.783,2019-7-30T15:12:54Z
2019-07-30T13:15:37Z,42.805,6.029,13.2956,4.59956,2469.76,2019-7-30T15:15:57Z
2019-07-30T13:18:41Z,42.805,6.029,13.2958,4.59954,2469.783,2019-7-30T15:19:00Z
2019-07-30T13:21:44Z,42.805,6.029,13.2959,4.59956,2469.797,2019-7-30T15:22:03Z
2019-07-30T13:24:47Z,42.805,6.029,13.2957,4.59953,2469.797,2019-7-30T15:25:06Z
2019-07-30T13:27:50Z,42.805,6.029,13.2959,4.59955,2469.821,2019-7-30T15:28:10Z
2019-07-30T13:30:53Z,42.805,6.029,13.2960,4.59953,2469.806,2019-7-30T15:31:13Z
2019-07-30T13:33:56Z,42.805,6.029,13.2958,4.59954,2469.773,2019-7-30T15:34:16Z
2019-07-30T13:37:00Z,42.805,6.029,13.2954,4.59954,2469.797,2019-7-30T15:37:19Z
2019-07-30T13:40:03Z,42.805,6.029,13.2958,4.59956,2469.821,2019-7-30T15:40:22Z
2019-07-30T13:43:06Z,42.805,6.029,13.2957,4.59956,2469.806,2019-7-30T15:43:26Z
2019-07-30T13:46:09Z,42.805,6.029,13.2957,4.59954,2469.844,2019-7-30T15:46:29Z
2019-07-30T13:49:12Z,42.805,6.029,13.2958,4.59953,2469.806,2019-7-30T15:49:32Z
2019-07-30T13:52:16Z,42.805,6.029,13.2956,4.59955,2469.821,2019-7-30T15:52:35Z
2019-07-30T13:55:19Z,42.805,6.029,13.2959,4.59957,2469.806,2019-7-30T15:55:38Z
2019-07-30T13:58:22Z,42.805,6.029,13.2958,4.59955,2469.806,2019-7-30T15:58:42Z
2019-07-30T14:01:25Z,42.805,6.029,13.2958,4.59955,2469.816,2019-7-30T16:01:45Z
2019-07-30T14:04:28Z,42.805,6.029,13.2957,4.59954,2469.83,2019-7-30T16:04:48Z
2019-07-30T14:07:32Z,42.805,6.029,13.2962,4.59954,2469.83,2019-7-30T16:07:51Z
2019-07-30T14:10:35Z,42.805,6.029,13.2958,4.59956,2469.806,2019-7-30T16:10:54Z
2019-07-30T14:13:38Z,42.805,6.029,13.2958,4.59955,2469.844,2019-7-30T16:13:58Z
2019-07-30T14:16:41Z,42.805,6.029,13.2957,4.59954,2469.806,2019-7-30T16:17:01Z
2019-07-30T14:19:44Z,42.805,6.029,13.2958,4.59955,2469.821,2019-7-30T16:20:04Z
2019-07-30T14:22:48Z,42.805,6.029,13.2957,4.59954,2469.83,2019-7-30T16:23:07Z
2019-07-30T14:25:51Z,42.805,6.029,13.2956,4.59956,2469.853,2019-7-30T16:26:10Z
2019-07-30T14:28:54Z,42.805,6.029,13.2959,4.59954,2469.867,2019-7-30T16:29:14Z
2019-07-30T14:31:57Z,42.805,6.029,13.2954,4.59954,2469.844,2019-7-30T16:32:17Z
2019-07-30T14:35:00Z,42.805,6.029,13.2956,4.59954,2469.844,2019-7-30T16:35:20Z
2019-07-30T14:38:04Z,42.805,6.029,13.2958,4.59952,2469.844,2019-7-30T16:38:23Z
2019-07-30T14:41:07Z,42.805,6.029,13.2954,4.59956,2469.844,2019-7-30T16:41:26Z
2019-07-30T14:44:10Z,42.805,6.029,13.2953,4.59954,2469.89,2019-7-30T16:44:29Z
2019-07-30T14:47:13Z,42.805,6.029,13.2957,4.59953,2469.853,2019-7-30T16:47:33Z
2019-07-30T14:50:16Z,42.805,6.029,13.2957,4.59954,2469.876,2019-7-30T16:50:36Z
2019-07-30T14:53:20Z,42.805,6.029,13.2958,4.59954,2469.853,2019-7-30T16:53:39Z
2019-07-30T14:56:23Z,42.805,6.029,13.2957,4.59953,2469.83,2019-7-30T16:56:42Z
2019-07-30T14:59:26Z,42.805,6.029,13.2956,4.59955,2469.867,2019-7-30T16:59:46Z
2019-07-30T15:02:29Z,42.805,6.029,13.2955,4.59953,2469.839,2019-7-30T17:02:49Z
2019-07-30T15:05:32Z,42.805,6.029,13.2958,4.59954,2469.914,2019-7-30T17:05:52Z
2019-07-30T15:08:36Z,42.805,6.029,13.2957,4.59953,2469.89,2019-7-30T17:08:55Z
2019-07-30T15:11:39Z,42.805,6.029,13.2958,4.59956,2469.9,2019-7-30T17:11:58Z
2019-07-30T15:14:42Z,42.805,6.029,13.2957,4.59957,2469.876,2019-7-30T17:15:02Z